Regional Weather Roundup
Issued by NWS

Home | Current Version | Previous Version | Text Only | Print | Product List | Glossary Off
Versions: 1 2 3 4 5 6 7 8 9 10 11 12 13 14 15 16 17 18 19 20 21 22 23 24 25 26 27 28 29 30 31 32 33 34 35 36 37 38 39 40 41 42 43 44 45 46 47 48 49 50

000
ASUS43 KFSD 060510
RWRSD

WEATHER ROUNDUP FOR SOUTH DAKOTA
NATIONAL WEATHER SERVICE SIOUX FALLS SD
1100 PM CST MON DEC 05 2016

NOTE: "FAIR" INDICATES FEW OR NO CLOUDS BELOW 12,000 FEET WITH NO
SIGNIFICANT WEATHER AND/OR OBSTRUCTIONS TO VISIBILITY.


SDZ001>005-009-010-012>017-060600-
NORTHWEST AND NORTH CENTRAL SOUTH DAKOTA

CITY           SKY/WX    TMP DP  RH WIND       PRES   REMARKS
BUFFALO          N/A      9   2  73 NW38G48   29.79F WCI -16
FAITH            N/A     11   8  88 W32G43    29.83F WCI -12
MOBRIDGE       CLEAR     13   5  70 NW30G41   29.75R BLWGSNOWWCI  -8
$$

SDZ012>016-024>037-041>051-057-063-072>074-060600-
SOUTHWEST AND SOUTH CENTRAL SOUTH DAKOTA

CITY           SKY/WX    TMP DP  RH WIND       PRES   REMARKS
RAPID CTY ARPT CLEAR     17   4  56 NW17      29.88R WCI   1
PIERRE         CLOUDY    15   6  67 NW31G44   29.88R WCI  -6
CUSTER         CLEAR     10  -5  50 NW14G28   29.75R WCI  -6
ELLSWORTH AFB  MOCLDY    17   4  57 NW16      29.88R WCI   1
PHILIP         CLOUDY    17   8  67 NW30G38   29.93R WCI  -3
PINE RIDGE     CLEAR     17  11  77 W16G23    29.90R WCI   2
SPEARFISH      FAIR      14   1  57 W18G28    29.90R WCI  -3
WINNER         FAIR      20  10  65 W25G37    29.88R WCI   2
$$

SDZ004>011-016>023-039-040-060600-
NORTHEAST SOUTH DAKOTA

CITY           SKY/WX    TMP DP  RH WIND       PRES   REMARKS
ABERDEEN       PTCLDY    17   9  70 W21G32    29.71R WCI   0
WATERTOWN      CLOUDY    20  14  77 W32G40    29.67S WCI   1
BROOKINGS      CLOUDY    22  17  81 W26G35    29.71R WCI   5
SISSETON         N/A     23  16  74 W29G43    29.57R WCI   6
$$

SDZ017-020-022-023-036>040-048>070-060600-
SOUTHEAST SOUTH DAKOTA

CITY           SKY/WX    TMP DP  RH WIND       PRES   REMARKS
SIOUX FALLS    MOCLDY    26  19  74 W21G31    29.79R WCI  12
HURON          MOCLDY    18  11  74 W25G37    29.82R WCI   0
CHAMBERLAIN    CLEAR     19  10  69 NW24G30   29.90R WCI   2
MITCHELL       PTCLDY    22  13  68 NW25G36   29.86R WCI   5
YANKTON        MOCLDY   N/A N/A N/A NW24      29.85S
$$

ABBREVIATIONS USED IN REMARKS
   TC - TEMPERATURE IN CELSIUS
  WCI - WIND CHILL INDEX
   HX - HEAT INDEX
  VSB - VISIBILITY





USA.gov is the U.S. government's official web portal to all federal, state and local government web resources and services.